Weather History for Geneva, Switzerland

Change the Weather History Date:

Monday, April 7, 2014

  Actual Average Record
Temperature  
Mean Temperature 59 °F -  
Max Temperature 74 °F 58 °F 77 °F (2011)
Min Temperature 44 °F 40 °F 30 °F (2006)
Degree Days  
Heating Degree Days 6    
Growing Degree Days 9 (Base 50)    
Moisture  
Dew Point 45 °F    
Average Humidity 60    
Maximum Humidity 100    
Minimum Humidity 20    
Precipitation  
Precipitation 0.04 in 0.08 in - ()
Sea Level Pressure  
Sea Level Pressure 30.07 in    
Wind  
Wind Speed 3 mph ()    
Max Wind Speed 15 mph    
Max Gust Speed -    
Visibility 11.6 miles    
Events      
Averages and records for this station are not official NWS values.
T = Trace of Precipitation, MM = Missing Value Source: Averaged Metar Reports

Daily Weather History Graph

Daily Weather History Graph

Search for Another Location

Airport:

Trip Planner

Search our weather history database for the weather conditions in past years. The results will help you decide how hot, cold, wet, or windy it might be!

Date:

Astronomy

Apr. 07, 2014 Rise Set
Actual Time 7:04 AM CEST 8:11 PM CEST
Civil Twilight 6:33 AM CEST 8:42 PM CEST
Nautical Twilight 5:56 AM CEST 9:19 PM CEST
Astronomical Twilight 5:17 AM CEST 9:59 PM CEST
Moon 12:36 PM CEST (4/7) 2:48 AM CEST (4/7)
Length of Visible Light 14h 09m
Length of Day
13h 07m
Waxing Crescent, 51% of the Moon is Illuminated
Apr 7
Waxing Crescent
Apr 15
Full
Apr 22
Last Quarter
Apr 29
New
May 7
First Quarter

Hourly Weather History & Observations

Time (CEST) Temp. Dew Point Humidity Pressure Visibility Wind Dir Wind Speed Gust Speed Precip Events Conditions
12:00 AM 51 °F 46 °F 75% 30.14 in - North 1.2 mph - -  
12:20 AM 50.0 °F 46.4 °F 87% 30.12 in - NNW 1.2 mph - N/A   Clear
12:50 AM 50.0 °F 46.4 °F 87% 30.12 in - Calm Calm - N/A   Clear
1:00 AM 50 °F 45 °F 78% 30.15 in - WNW 1.2 mph - -  
1:20 AM 48.2 °F 46.4 °F 93% 30.12 in - Calm Calm - N/A   Clear
1:50 AM 48.2 °F 46.4 °F 93% 30.12 in - Calm Calm - N/A   Clear
2:00 AM 49 °F 44 °F 78% 30.16 in 19 mi WSW 1.2 mph - -   Clear
2:20 AM 48.2 °F 44.6 °F 87% 30.12 in - Calm Calm - N/A   Clear
2:50 AM 46.4 °F 44.6 °F 93% 30.12 in - Calm Calm - N/A   Clear
3:00 AM 47 °F 44 °F 84% 30.16 in - NNW 1.2 mph - -  
3:50 AM 46.4 °F 42.8 °F 87% 30.12 in - Calm Calm - N/A   Clear
4:00 AM 46 °F 43 °F 85% 30.15 in - NNW 1.2 mph - -  
4:20 AM 44.6 °F 42.8 °F 93% 30.12 in - Calm Calm - N/A   Clear
4:50 AM 44.6 °F 42.8 °F 93% 30.12 in - Calm Calm - N/A   Clear
5:00 AM 46 °F 42 °F 80% 30.14 in 12 mi WNW 1.2 mph - -   Clear
5:20 AM 44.6 °F 42.8 °F 93% 30.12 in - Calm Calm - N/A   Clear
5:50 AM 44.6 °F 42.8 °F 93% 30.12 in - Calm Calm - N/A   Clear
6:00 AM 45 °F 42 °F 85% 30.15 in - WNW 1.2 mph - -  
6:20 AM 44.6 °F 42.8 °F 93% 30.12 in - Calm Calm - N/A   Clear
6:50 AM 42.8 °F 42.8 °F 100% 30.12 in - Variable 1.2 mph - N/A   Clear
7:00 AM 44 °F 41 °F 87% 30.15 in - East 1.2 mph - -  
7:20 AM 44.6 °F 42.8 °F 93% 30.12 in - Calm Calm - N/A   Clear
7:50 AM 44.6 °F 42.8 °F 93% 30.12 in - Calm Calm - N/A   Clear
8:00 AM 47 °F 43 °F 81% 30.16 in 14 mi NNW 1.2 mph - -   Clear
8:20 AM 48.2 °F 44.6 °F 87% 30.12 in - Calm Calm - N/A   Clear
8:50 AM 51.8 °F 46.4 °F 82% 30.12 in - Calm Calm - N/A   Clear
9:00 AM 51 °F 47 °F 80% 30.15 in - NNE 2.3 mph - -  
9:20 AM 53.6 °F 48.2 °F 82% 30.12 in - Calm Calm - N/A   Clear
9:50 AM 55.4 °F 48.2 °F 77% 30.12 in - Calm Calm - N/A   Clear
10:00 AM 56 °F 47 °F 64% 30.13 in - NE 2.3 mph - -  
10:20 AM 59.0 °F 48.2 °F 67% 30.12 in - Variable 2.3 mph - N/A   Clear
10:50 AM 60.8 °F 46.4 °F 59% 30.12 in - ESE 3.5 mph - N/A   Clear
11:00 AM 59 °F 45 °F 48% 30.12 in 12 mi SE 4.6 mph - -   Clear
11:20 AM 60.8 °F 46.4 °F 59% 30.12 in - Variable 3.5 mph - N/A   Clear
11:50 AM 62.6 °F 48.2 °F 59% 30.12 in - Variable 2.3 mph - N/A   Clear
12:00 PM 62 °F 46 °F 46% 30.10 in - NNE 3.5 mph - -  
12:20 PM 62.6 °F 46.4 °F 55% 30.09 in - Variable 3.5 mph - N/A   Clear
12:50 PM 64.4 °F 48.2 °F 56% 30.09 in - Variable 2.3 mph - N/A   Clear
1:00 PM 62 °F 45 °F 43% 30.07 in - NE 1.2 mph - -  
1:20 PM 66.2 °F 48.2 °F 52% 30.09 in - Variable 3.5 mph - N/A   Clear
1:50 PM 66.2 °F 48.2 °F 52% 30.06 in - ENE 4.6 mph - N/A   Clear
2:00 PM 66 °F 48 °F 41% 30.05 in 17 mi East 5.8 mph - -   Clear
2:20 PM 68.0 °F 48.2 °F 49% 30.06 in - Variable 3.5 mph - N/A   Clear
2:50 PM 69.8 °F 50.0 °F 49% 30.04 in - Variable 2.3 mph - N/A   Clear
3:00 PM 70 °F 47 °F 33% 30.01 in - SW 5.8 mph - -  
3:20 PM 71.6 °F 46.4 °F 41% 30.04 in - SSW 6.9 mph - N/A   Clear
3:50 PM 73.4 °F 41.0 °F 31% 30.01 in - SW 10.4 mph - N/A   Clear
4:00 PM 74 °F 41 °F 20% 29.96 in - SW 12.7 mph - -  
4:20 PM 73.4 °F 42.8 °F 33% 30.01 in - SW 15.0 mph - N/A   Clear
4:50 PM 75.2 °F 42.8 °F 31% 30.01 in - SW 13.8 mph - N/A   Clear
5:00 PM 74 °F 42 °F 21% 29.94 in 19 mi SW 13.8 mph - -   Scattered Clouds
5:20 PM 73.4 °F 42.8 °F 33% 30.01 in - SW 13.8 mph - N/A   Clear
5:50 PM 75.2 °F 42.8 °F 31% 29.98 in - SSW 13.8 mph - N/A   Clear
6:00 PM 74 °F 42 °F 21% 29.94 in - South 13.8 mph - -  
6:20 PM 73.4 °F 44.6 °F 36% 29.98 in - SSW 13.8 mph - N/A   Clear
6:50 PM 73.4 °F 42.8 °F 33% 29.98 in - SW 10.4 mph - N/A   Clear
7:00 PM 72 °F 44 °F 25% 29.95 in - SSW 10.4 mph - -  
7:20 PM 71.6 °F 44.6 °F 38% 29.98 in - SSW 9.2 mph - N/A   Clear
7:50 PM 71.6 °F 44.6 °F 38% 30.01 in - SW 8.1 mph - N/A   Clear
8:00 PM 70 °F 43 °F 27% 29.96 in 19 mi SW 9.2 mph - -   Scattered Clouds
8:20 PM 69.8 °F 44.6 °F 40% 30.01 in - SSW 10.4 mph - N/A   Clear
8:50 PM 68.0 °F 46.4 °F 46% 30.01 in 6.2 mi SW 6.9 mph - N/A   Mostly Cloudy
9:00 PM 65 °F 46 °F 38% 29.99 in - WSW 5.8 mph - -  
9:20 PM 66.2 °F 46.4 °F 49% 30.04 in 6.2 mi WSW 5.8 mph - N/A   Mostly Cloudy
9:50 PM 66.2 °F 46.4 °F 49% 30.04 in 6.2 mi SW 10.4 mph - N/A   Mostly Cloudy
10:00 PM 66 °F 44 °F 33% 30.01 in - SW 10.4 mph - -  
10:20 PM 66.2 °F 44.6 °F 46% 30.04 in 6.2 mi SSW 8.1 mph - N/A   Mostly Cloudy
10:50 PM 68.0 °F 41.0 °F 37% 30.04 in 6.2 mi SW 9.2 mph - N/A   Scattered Clouds
11:00 PM 67 °F 40 °F 26% 30.01 in 19 mi SW 11.5 mph - -   Partly Cloudy
11:20 PM 64.4 °F 42.8 °F 45% 30.04 in 6.2 mi WSW 10.4 mph - N/A   Partly Cloudy
11:50 PM 66.2 °F 42.8 °F 43% 30.04 in 6.2 mi WSW 11.5 mph - N/A   Mostly Cloudy